{"data":{"norad_id":64259,"epoch":"2026-09-20T13:05:37.176288Z","epoch_age_seconds":133638,"freshness":"FRESH","line1":"1 64259U 25120D   26263.54556917  .00015357  00000+0  46475-3 0  9996","line2":"2 64259  53.1584 285.6307 0001062  82.1284 277.9839 15.34397819 73789","mean_motion":15.34397819,"eccentricity":0.0001062,"inclination_deg":53.1584,"raan_deg":285.6307,"arg_perigee_deg":82.1284,"mean_anomaly_deg":277.9839,"bstar":0.00046475,"rev_number":7378,"period_min":93.847891476963,"perigee_km":461.98322468447,"apogee_km":463.43622052835,"semimajor_km":6840.8467226064,"source":"CELESTRAK","updated_at":"2026-09-21T09:00:35.281972Z"}}